Spokane, WA

1:52 PM PST on November 18, 2017 (GMT -0800)
Spokane International

Weather History for KGEG - March, 2012

Change the Weather History Date:

Monday, March 19, 2012

  Actual Average Record
Temperature  
Mean Temperature 34 °F 41 °F  
Max Temperature 41 °F 50 °F 68 °F (1947)
Min Temperature 26 °F 33 °F 12 °F (1965)
Degree Days  
Heating Degree Days 31 24  
Month to date heating degree days 518 502  
Since 1 July heating degree days 5197 5331  
Cooling Degree Days 0 0  
Month to date cooling degree days 0 0  
Year to date cooling degree days 0 0  
Moisture  
Dew Point 20 °F    
Average Humidity 60    
Maximum Humidity 85    
Minimum Humidity 35    
Precipitation  
Precipitation 0.00 in 0.05 in 0.46 in (1907)
Month to date precipitation 2.08 1.00  
Year to date precipitation 5.57 4.12  
Snow  
Snow 0.00 in 0.10 in 0.60 in (2011)
Month to date snowfall 0.4 2.3  
Since 1 July snowfall 30.6 42.6  
Snow Depth 0.00 in    
Sea Level Pressure  
Sea Level Pressure 29.80 in    
Wind  
Wind Speed 13 mph (SSW)    
Max Wind Speed 22 mph    
Max Gust Speed 26 mph    
Visibility 10 miles    
Events      
T = Trace of Precipitation, MM = Missing Value Source: NWS Daily Summary

Daily Weather History Graph

Daily Weather History Graph

Search for Another Location

Airport or City:

Trip Planner

Search our weather history database for the weather conditions in past years. The results will help you decide how hot, cold, wet, or windy it might be!

Date:

Astronomy

Mar. 19, 2012 Rise Set
Actual Time 6:53 AM PDT 7:02 PM PDT
Civil Twilight 6:23 AM PDT 7:33 PM PDT
Nautical Twilight 5:47 AM PDT 8:09 PM PDT
Astronomical Twilight 5:09 AM PDT 8:46 PM PDT
Moon 5:18 AM PDT (3/19) 4:27 PM PDT (3/19)
Length of Visible Light 13h 09m
Length of Day
12h 08m
Waning Crescent, 8% of the Moon is Illuminated
Mar 19
Waning Crescent
Mar 22
New
Mar 30
First Quarter
Apr 6
Full
Apr 13
Last Quarter

Hourly Weather History & Observations

Time (PDT) Temp. Windchill Dew Point Humidity Pressure Visibility Wind Dir Wind Speed Gust Speed Precip Events Conditions
12:53 AM 30.9 °F 22.2 °F 25.0 °F 79% 29.67 in 10.0 mi SW 10.4 mph - N/A   Mostly Cloudy
1:53 AM 32.0 °F 23.6 °F 25.0 °F 75% 29.68 in 10.0 mi SSW 10.4 mph - N/A   Mostly Cloudy
2:53 AM 28.9 °F 19.2 °F 25.0 °F 85% 29.70 in 10.0 mi SSW 11.5 mph - N/A   Scattered Clouds
3:53 AM 28.0 °F 18.1 °F 24.1 °F 85% 29.72 in 10.0 mi SSW 11.5 mph - N/A   Scattered Clouds
4:53 AM 27.0 °F 13.2 °F 21.9 °F 81% 29.73 in 10.0 mi SSW 20.7 mph - N/A   Scattered Clouds
5:53 AM 27.0 °F 15.6 °F 23.0 °F 85% 29.76 in 10.0 mi SSW 13.8 mph - N/A   Scattered Clouds
6:53 AM 26.1 °F 13.1 °F 21.9 °F 84% 29.78 in 10.0 mi SSW 17.3 mph - N/A   Scattered Clouds
7:36 AM 26.6 °F 13.8 °F 21.2 °F 80% 29.75 in 10.0 mi SSW 17.3 mph 23.0 mph N/A   Mostly Cloudy
8:53 AM 28.9 °F 17.3 °F 23.0 °F 78% 29.83 in 10.0 mi SSW 16.1 mph - N/A   Mostly Cloudy
9:53 AM 28.9 °F 16.9 °F 23.0 °F 78% 29.86 in 10.0 mi SSW 17.3 mph 24.2 mph N/A   Mostly Cloudy
10:53 AM 32.0 °F 23.0 °F 23.0 °F 69% 29.87 in 10.0 mi SSW 11.5 mph - N/A   Mostly Cloudy
11:53 AM 35.1 °F 25.2 °F 21.9 °F 59% 29.85 in 10.0 mi SW 16.1 mph - N/A   Scattered Clouds
12:53 PM 37.0 °F 28.1 °F 21.0 °F 52% 29.85 in 10.0 mi South 15.0 mph 25.3 mph N/A   Scattered Clouds
1:53 PM 36.0 °F 26.3 °F 19.0 °F 50% 29.83 in 10.0 mi SW 16.1 mph 23.0 mph N/A   Mostly Cloudy
2:53 PM 37.0 °F 28.9 °F 18.0 °F 46% 29.83 in 10.0 mi SW 12.7 mph 20.7 mph N/A   Mostly Cloudy
3:53 PM 37.9 °F 30.0 °F 15.1 °F 39% 29.84 in 10.0 mi SW 12.7 mph - N/A   Mostly Cloudy
4:53 PM 37.9 °F 29.6 °F 14.0 °F 38% 29.83 in 10.0 mi SW 13.8 mph - N/A   Mostly Cloudy
5:53 PM 37.9 °F 30.5 °F 12.9 °F 36% 29.83 in 10.0 mi SSW 11.5 mph - N/A   Mostly Cloudy
6:53 PM 37.9 °F 31.5 °F 15.1 °F 39% 29.83 in 10.0 mi SSW 9.2 mph - N/A   Mostly Cloudy
7:53 PM 35.1 °F 27.9 °F 16.0 °F 46% 29.83 in 10.0 mi South 9.2 mph - N/A   Scattered Clouds
8:53 PM 34.0 °F 26.0 °F 17.1 °F 50% 29.84 in 10.0 mi South 10.4 mph - N/A   Scattered Clouds
9:53 PM 33.1 °F 26.9 °F 16.0 °F 50% 29.84 in 10.0 mi South 6.9 mph - N/A   Partly Cloudy
10:53 PM 32.0 °F 24.2 °F 17.1 °F 54% 29.83 in 10.0 mi SSE 9.2 mph - N/A   Mostly Cloudy
11:53 PM 32.0 °F 24.2 °F 19.0 °F 59% 29.82 in 10.0 mi South 9.2 mph - N/A   Mostly Cloudy